CST,Max TemperatureF,Mean TemperatureF,Min TemperatureF,Max Dew PointF,MeanDew PointF,Min DewpointF,Max Humidity, Mean Humidity, Min Humidity, Max Sea Level PressureIn, Mean Sea Level PressureIn, Min Sea Level PressureIn, Max VisibilityMiles, Mean VisibilityMiles, Min VisibilityMiles, Max Wind SpeedMPH, Mean Wind SpeedMPH, Max Gust SpeedMPH,PrecipitationIn, CloudCover, Events, WindDirDegrees
2013-12-1,60,50,39,48,45,39,100,84,67,30.13,30.02,29.88,10,9,2,7,2,8,0.00,6,,112
2013-12-2,64,53,41,49,45,39,100,74,48,29.89,29.81,29.66,10,3,0,8,2,12,0.00,5,Fog,180
2013-12-3,65,53,40,54,47,40,100,80,60,29.69,29.65,29.56,10,4,0,18,7,24,0.00,4,Fog,133
2013-12-4,70,54,37,52,45,34,100,72,44,29.90,29.67,29.59,10,5,0,17,8,24,0.01,3,Fog,160
2013-12-5,37,29,20,32,21,18,96,86,75,30.27,30.14,29.91,10,5,1,16,8,23,0.99,8,Rain-Snow,333
2013-12-6,20,18,15,18,16,9,92,83,74,30.57,30.31,30.19,10,3,0,13,7,17,0.48,8,Fog-Snow,337
2013-12-7,20,13,5,11,6,1,87,72,56,30.67,30.55,30.36,10,10,10,14,4,17,0.00,3,,31
2013-12-8,28,23,17,27,20,10,100,84,67,30.32,30.11,29.99,10,5,2,20,5,24,0.01,8,Rain,141
2013-12-9,28,25,21,25,18,13,88,78,68,30.34,30.26,30.14,10,10,8,15,6,21,T,6,,323
2013-12-10,37,26,15,18,15,12,88,64,40,30.43,30.36,30.31,10,9,6,13,6,17,T,1,Snow,282
2013-12-11,38,26,14,22,17,10,92,70,47,30.64,30.49,30.30,10,10,8,14,5,20,0.00,0,,315
2013-12-12,42,27,11,19,13,6,84,56,27,30.64,30.50,30.30,10,10,8,8,4,10,0.00,0,,144
2013-12-13,39,33,27,34,30,16,100,70,40,30.28,29.97,29.84,10,6,0,16,8,21,0.50,7,Fog-Rain,131
2013-12-14,34,31,27,34,30,23,100,89,78,30.23,29.98,29.82,10,5,0,17,9,25,0.25,8,Fog-Rain-Snow,307
2013-12-15,50,36,22,28,24,19,88,65,42,30.26,30.19,30.11,10,8,5,16,6,23,0.00,1,,266
2013-12-16,65,56,47,31,27,25,46,34,22,30.12,30.08,30.04,10,10,10,20,8,30,0.00,0,,249
2013-12-17,59,47,35,34,30,25,67,50,32,30.31,30.22,30.11,10,10,10,16,6,24,0.00,0,,293
2013-12-18,61,45,28,38,31,26,92,64,35,30.29,30.14,29.97,10,10,10,18,10,26,0.00,0,,156
2013-12-19,60,55,49,54,46,38,83,69,54,29.96,29.86,29.76,10,10,10,17,11,25,0.00,5,,181
2013-12-20,67,51,35,57,45,35,100,87,73,29.86,29.81,29.75,10,5,0,15,7,21,0.16,7,Fog-Rain,284
2013-12-21,41,38,34,40,36,33,100,96,92,29.78,29.67,29.49,10,4,0,14,5,21,1.33,8,Fog-Rain-Thunderstorm,331
2013-12-22,40,34,27,39,28,20,100,88,75,30.34,29.99,29.68,10,8,0,16,9,23,T,8,Fog,299
2013-12-23,30,24,17,23,19,14,92,78,63,30.59,30.50,30.35,10,8,1,14,6,20,0.02,7,Snow,314
2013-12-24,37,26,15,23,18,13,92,72,52,30.59,30.47,30.33,10,9,5,18,9,24,0.00,4,,142
2013-12-25,47,36,24,32,28,22,92,73,53,30.39,30.34,30.29,10,10,7,13,5,17,0.00,2,,286
2013-12-26,51,38,24,29,24,21,92,61,30,30.43,30.37,30.32,10,10,6,13,5,16,0.00,0,,186
2013-12-27,59,46,32,28,25,22,72,50,28,30.44,30.37,30.32,10,10,10,9,3,20,0.00,0,,209
2013-12-28,54,41,28,32,26,20,78,54,30,30.29,30.13,29.95,10,10,10,13,4,17,0.00,1,,146
2013-12-29,48,35,21,36,25,14,85,73,61,30.27,30.11,29.94,10,10,6,18,9,25,0.00,6,,316
2013-12-30,39,27,14,21,15,11,88,66,44,30.35,30.29,30.23,10,10,10,13,3,18,0.00,0,,255
2013-12-31,56,41,25,25,20,16,64,44,24,30.40,30.31,30.19,10,10,10,17,8,23,0.00,0,,184